Wind_Speed
16 19 20 21 21 18 20 22 23 23 23 20 17 17 16 16 16 16 15 16 15 16 17 16 17 17 12 7 8 10 15 13 9 9 5 1 1 3 5 5 3 7 12
10 16 16 20 23 20 19 19 21 20 19 19 15 14 15 17 17 15 15 18 17 15 17 19 20 18 12 12 14 13 13 9 6 4 5 6 8 10 13 12 11 16 18
14 15 16 17 20 21 21 20 20 21 20 18 16 15 17 20 18 18 18 17 15 17 17 16 14 14 16 16 15 12 10 9 8 9 11 12 13 14 17 19 15 16 19
22 23 20 18 16 16 22 23 21 24 23 21 21 20 19 19 19 19 19 19 19 18 18 17 17 18 18 17 16 14 13 13 15 16 16 19 21 24 24 24 25 24 24
26 27 27 25 23 20 18 15 15 16 19 21 21 21 21 21 20 20 19 20 19 19 19 18 19 18 19 17 19 19 19 21 21 22 23 25 27 26 27 28 29 31 32
28 28 30 30 32 29 26 23 19 18 17 20 23 22 24 24 22 22 21 19 21 22 22 21 20 21 21 23 23 23 24 26 27 27 30 29 28 29 31 32 31 34 37
42 40 33 34 35 33 31 30 29 25 25 26 25 25 26 26 24 23 24 24 25 25 25 26 25 26 28 29 30 31 30 28 30 33 35 37 37 37 37 39 40 42 44
40 45 46 37 35 35 35 33 35 32 33 32 31 31 31 31 30 31 29 28 28 28 29 30 32 31 31 33 36 37 38 37 38 39 40 41 42 43 43 43 43 48 48
55 50 51 42 37 35 36 38 38 42 41 40 39 40 39 36 34 35 36 34 34 35 36 37 38 37 40 41 42 40 38 40 41 39 39 41 43 44 45 46 49 51 53
59 58 54 52 49 44 48 49 47 44 47 46 44 43 43 40 38 38 37 37 37 36 36 39 42 42 41 40 43 44 44 44 43 43 44 44 45 48 51 54 56 56 58
64 63 60 54 56 49 45 43 53 52 45 49 53 51 48 45 43 46 44 42 44 42 42 43 48 48 48 47 45 45 47 47 49 52 53 53 57 60 60 60 62 63 66
73 73 65 62 60 54 51 43 45 52 53 55 56 52 53 50 47 49 51 50 50 47 48 47 48 51 53 53 52 51 53 54 55 57 60 62 63 65 67 69 71 74 78
82 82 78 75 76 71 66 69 65 57 55 59 59 60 62 59 59 59 60 59 57 58 56 53 54 56 54 56 59 61 61 61 63 64 67 67 69 72 75 77 79 79 81
89 88 84 80 80 79 76 76 74 77 67 67 67 66 68 69 67 66 66 66 64 66 66 65 62 63 65 66 66 65 66 70 73 74 74 77 79 77 75 80 81 84 84
96 95 92 89 87 87 84 84 85 87 71 73 78 74 73 75 74 74 75 74 73 73 73 72 72 71 72 72 74 74 77 79 79 81 81 82 83 85 88 89 90 91 94
107 101 99 96 95 95 93 91 88 90 88 77 78 83 82 82 81 83 83 82 82 82 82 82 82 82 81 80 83 85 86 85 86 86 90 92 91 93 95 95 96 98 99
105 109 107 103 102 100 101 99 98 96 99 96 92 91 90 88 89 89 91 91 91 91 91 91 91 91 91 92 91 91 92 94 93 90 91 92 95 97 100 101 101 105 109
99 105 104 108 107 107 105 106 104 104 105 108 104 101 99 100 100 99 98 97 99 98 98 99 100 100 101 100 100 101 102 102 102 104 102 101 102 106 107 107 111 116 121
114 115 111 112 112 111 109 112 111 109 111 113 114 112 104 102 102 104 107 106 106 107 107 108 108 106 105 106 108 108 109 110 111 111 112 111 112 113 113 114 116 116 119
112 106 107 99 105 113 115 114 114 117 116 113 115 120 120 114 108 110 110 109 110 110 108 108 109 110 110 108 107 110 113 111 113 111 110 112 115 117 118 120 123 125 129
96 106 111 115 105 106 114 114 115 117 118 114 110 111 112 118 117 111 112 109 107 107 107 107 104 107 112 115 112 113 115 114 113 112 115 118 119 121 122 125 127 128 129
96 98 104 107 112 111 110 113 115 117 119 124 120 116 113 112 112 113 108 111 111 113 112 111 113 114 112 111 113 115 115 117 119 120 121 121 125 130 132 134 137 140 145
67 70 81 86 94 112 119 120 118 113 113 115 120 121 124 120 115 114 114 116 115 114 113 113 114 115 111 114 118 117 121 125 129 135 138 139 140 143 144 146 150 146 148
51 54 55 58 63 72 84 108 124 124 123 123 120 116 119 128 130 123 122 123 124 125 124 126 127 128 128 130 134 136 141 148 149 149 147 146 148 151 151 151 151 153 153
43 47 49 51 52 56 61 69 79 92 106 117 121 124 123 121 125 131 137 139 139 141 142 140 138 139 142 143 147 146 144 145 147 147 146 146 146 146 146 146 151 153 151
30 35 39 43 46 49 52 56 62 68 77 84 91 103 115 121 123 124 126 126 128 131 133 135 137 138 140 140 140 140 141 144 147 146 146 148 148 146 143 136 130 127 124
Wind_Direction
159 158 157 159 158 150 155 161 165 161 161 165 164 167 173 172 171 172 178 180 182 190 194 195 201 205 219 221 191 165 153 167 171 154 172 154 4 325 311 299 313 5 5
177 174 177 177 170 168 169 169 168 169 179 185 193 191 193 192 197 201 199 197 193 193 202 206 210 207 210 186 175 163 158 167 172 195 252 284 302 318 314 307 300 311 312
200 193 187 200 199 197 197 200 200 201 204 208 214 211 207 214 218 217 207 199 204 200 201 204 202 195 180 180 183 187 199 219 237 263 280 287 292 298 303 301 297 285 293
210 208 208 197 201 208 211 215 219 217 222 221 216 222 226 218 213 211 205 207 204 200 195 189 192 187 190 195 203 220 236 246 256 268 288 294 295 295 291 285 287 291 287
220 215 215 218 218 208 205 210 211 210 209 211 205 204 202 202 202 201 196 194 195 194 195 195 198 202 207 218 222 234 238 248 253 259 276 284 287 285 288 292 296 297 297
228 234 220 219 226 227 222 219 223 226 217 212 211 205 203 204 205 205 203 203 205 210 213 216 221 225 231 236 246 255 260 261 264 266 271 273 279 281 285 289 293 296 296
229 229 229 223 225 232 232 230 228 227 230 231 226 217 212 209 209 211 213 216 223 227 225 227 228 236 244 250 253 253 258 262 270 276 281 285 288 290 290 290 287 291 293
214 226 233 233 229 232 234 236 238 235 229 232 234 232 226 220 222 224 227 230 229 231 236 238 239 243 247 251 253 257 260 266 271 274 279 283 285 290 293 295 292 295 295
224 232 228 231 232 242 240 241 237 236 236 234 231 236 236 234 232 235 236 238 244 246 248 247 247 246 249 253 257 262 265 271 274 275 277 280 281 285 290 292 292 292 293
225 227 228 231 231 240 241 238 246 244 240 238 237 238 238 236 238 239 243 245 245 248 255 258 257 253 252 256 259 265 268 268 271 274 278 279 281 281 284 288 289 291 294
223 220 223 229 232 231 227 237 250 246 245 245 242 239 236 237 240 242 244 248 245 246 250 256 257 256 257 258 259 263 269 271 274 278 279 278 278 282 285 288 290 288 290
225 221 225 226 229 223 228 228 236 237 241 246 248 245 245 242 245 246 248 249 249 250 254 259 259 261 263 263 262 263 266 269 273 276 279 281 284 285 285 287 287 289 292
225 224 226 229 232 230 230 233 236 232 233 233 238 243 244 243 246 249 252 252 252 260 262 264 264 263 264 264 264 264 267 274 276 278 281 282 283 286 288 290 290 291 292
228 229 230 231 234 230 232 235 239 239 239 236 239 245 246 249 252 256 258 258 259 261 264 267 268 268 269 269 272 274 276 277 277 281 282 282 284 286 287 291 288 289 290
229 231 231 231 234 236 234 235 240 234 243 252 248 247 252 251 254 256 259 260 261 263 264 266 267 269 271 271 273 276 280 282 282 283 282 282 283 284 287 290 289 288 289
232 231 232 233 234 236 237 236 239 235 237 244 251 253 256 257 256 257 259 260 261 262 263 265 266 268 270 271 273 274 277 278 280 283 285 285 284 285 287 288 288 289 289
237 235 234 234 237 237 240 240 242 241 235 241 247 251 254 256 258 258 260 261 262 264 264 264 267 270 271 272 273 275 276 277 279 280 280 282 285 285 285 286 288 289 287
235 235 237 237 239 240 241 243 242 244 242 243 248 251 254 258 259 260 262 263 263 264 265 267 269 269 270 271 272 275 277 277 277 278 279 281 282 281 283 285 286 288 291
239 242 244 240 240 242 244 245 245 243 247 247 248 251 256 257 258 260 262 265 265 266 267 269 270 270 270 272 273 275 277 278 279 281 283 285 284 284 283 284 286 287 290
240 240 241 245 243 242 244 246 247 248 248 250 252 252 255 258 258 259 261 263 265 266 269 270 271 272 273 276 277 277 279 280 282 281 280 283 283 283 283 284 285 288 288
242 242 244 245 246 246 244 246 248 249 247 248 250 255 257 259 260 261 263 264 263 263 265 267 268 268 271 274 276 276 276 278 278 281 282 283 283 283 285 283 284 285 284
247 248 248 249 245 245 246 247 247 247 250 250 249 250 253 255 257 258 258 261 263 262 264 266 268 269 269 270 272 273 275 275 277 279 279 279 280 282 281 282 284 286 286
246 250 249 250 248 246 247 247 249 249 250 250 249 250 249 250 250 253 255 257 260 264 263 263 264 267 269 268 269 270 271 271 274 278 279 279 278 279 279 280 284 288 288
246 251 254 255 252 250 250 250 248 247 249 251 250 250 252 252 252 252 254 256 259 260 263 264 266 267 268 270 271 272 275 276 278 281 283 282 283 283 284 284 285 285 289
254 255 256 258 259 259 258 254 252 254 256 256 256 254 254 255 255 257 259 259 261 263 266 268 270 271 271 273 274 276 277 278 280 281 282 282 284 284 285 286 285 287 291
259 260 262 263 263 263 263 262 261 261 260 257 256 257 257 257 257 259 262 264 265 267 269 270 271 272 274 274 275 276 277 278 280 282 282 283 285 285 286 288 288 289 291
Height
10966 10968 10967 10968 10969 10971 10972 10974 10977 10978 10980 10983 10985 10988 10990 10992 10994 10996 10998 10999 11001 11003 11005 11006 11009 11011 11012 11012 11012 11012 11012 11014 11016 11016 11016 11015 11015 11015 11014 11014 11014 11014 11014
10966 10967 10969 10971 10970 10971 10974 10976 10978 10980 10981 10983 10985 10986 10989 10990 10992 10995 10996 10998 10999 11001 11004 11006 11009 11010 11011 11012 11012 11012 11013 11014 11014 11015 11014 11013 11013 11012 11012 11012 11013 11012 11012
10963 10964 10965 10970 10973 10972 10973 10976 10979 10980 10981 10981 10983 10985 10987 10989 10990 10992 10993 10995 10997 11000 11003 11004 11005 11007 11010 11012 11012 11012 11012 11013 11012 11012 11012 11012 11011 11012 11011 11010 11010 11010 11009
10959 10962 10964 10966 10970 10972 10973 10974 10976 10980 10981 10982 10982 10984 10985 10987 10988 10989 10991 10994 10996 10999 11001 11002 11003 11005 11006 11008 11009 11010 11011 11011 11010 11009 11009 11008 11007 11007 11007 11008 11007 11006 11004
10954 10956 10959 10963 10966 10969 10972 10974 10975 10978 10980 10981 10983 10983 10985 10986 10987 10988 10990 10992 10995 10996 10998 10999 11001 11002 11004 11005 11006 11007 11007 11007 11007 11007 11005 11004 11003 11003 11001 11001 11000 10999 10997
10948 10951 10953 10956 10961 10964 10968 10970 10972 10976 10979 10981 10982 10982 10983 10984 10984 10986 10988 10990 10992 10994 10995 10997 10998 10999 11000 11001 11002 11002 11003 11002 11001 11000 10999 10998 10997 10997 10995 10994 10993 10992 10989
10940 10946 10947 10950 10953 10959 10962 10965 10968 10971 10973 10977 10979 10980 10982 10982 10982 10984 10985 10986 10988 10989 10990 10991 10992 10993 10995 10996 10997 10996 10996 10996 10995 10994 10992 10991 10991 10990 10989 10988 10985 10984 10982
10932 10937 10941 10945 10948 10952 10956 10959 10963 10966 10967 10969 10973 10975 10977 10977 10978 10979 10981 10981 10982 10983 10984 10985 10986 10988 10988 10988 10989 10989 10988 10989 10988 10987 10985 10984 10982 10980 10978 10976 10974 10972 10968
10921 10926 10932 10937 10940 10944 10947 10951 10952 10956 10960 10961 10964 10966 10969 10970 10971 10972 10973 10974 10975 10976 10976 10977 10979 10979 10980 10980 10980 10980 10980 10979 10978 10979 10978 10976 10974 10971 10968 10965 10962 10960 10958
10910 10915 10920 10924 10929 10934 10935 10937 10943 10945 10950 10952 10954 10957 10960 10960 10962 10962 10964 10965 10967 10968 10968 10969 10969 10969 10969 10970 10970 10970 10969 10969 10969 10969 10968 10966 10963 10960 10957 10954 10950 10946 10944
10895 10902 10908 10913 10919 10924 10926 10931 10933 10937 10938 10941 10943 10944 10944 10948 10950 10951 10953 10956 10956 10957 10957 10958 10958 10959 10959 10960 10961 10960 10959 10959 10958 10957 10956 10954 10951 10948 10944 10941 10937 10932 10928
10880 10889 10896 10902 10908 10913 10914 10919 10924 10924 10927 10929 10932 10934 10937 10938 10939 10942 10944 10944 10946 10947 10946 10946 10946 10946 10947 10947 10947 10947 10947 10946 10946 10944 10942 10940 10937 10934 10931 10927 10922 10918 10912
10864 10872 10881 10888 10891 10899 10902 10907 10912 10911 10913 10914 10916 10919 10922 10924 10926 10928 10930 10931 10933 10932 10932 10932 10933 10932 10932 10933 10934 10933 10933 10932 10930 10928 10927 10926 10922 10917 10913 10910 10904 10900 10895
10847 10855 10863 10870 10876 10883 10885 10889 10894 10897 10898 10900 10903 10905 10907 10908 10909 10911 10912 10914 10915 10916 10915 10914 10916 10917 10917 10918 10917 10917 10916 10915 10913 10911 10909 10907 10904 10899 10894 10890 10884 10880 10875
10827 10837 10844 10852 10857 10863 10867 10871 10875 10878 10883 10885 10884 10886 10889 10889 10891 10893 10894 10896 10897 10897 10898 10897 10898 10899 10899 10900 10898 10897 10895 10893 10892 10888 10886 10884 10881 10878 10873 10868 10863 10857 10852
10808 10814 10824 10831 10837 10842 10848 10851 10858 10862 10865 10866 10867 10867 10869 10869 10872 10872 10873 10876 10877 10878 10878 10878 10878 10879 10879 10879 10877 10875 10875 10873 10871 10868 10864 10861 10857 10853 10849 10845 10839 10834 10827
10786 10794 10799 10807 10812 10817 10822 10829 10835 10839 10841 10843 10845 10848 10848 10848 10849 10852 10853 10856 10858 10858 10858 10859 10859 10858 10857 10856 10854 10852 10850 10849 10848 10843 10839 10836 10832 10828 10823 10818 10812 10802 10796
10763 10772 10778 10784 10788 10793 10798 10804 10810 10813 10818 10819 10820 10825 10827 10827 10829 10830 10832 10831 10833 10835 10836 10836 10836 10835 10833 10831 10829 10828 10824 10822 10820 10816 10813 10810 10805 10798 10793 10789 10783 10774 10766
10741 10748 10754 10761 10765 10769 10774 10779 10786 10791 10793 10796 10798 10801 10805 10806 10806 10805 10807 10810 10810 10810 10812 10812 10811 10810 10809 10807 10804 10803 10800 10796 10792 10789 10785 10782 10776 10769 10766 10762 10756 10748 10740
10719 10725 10732 10735 10741 10746 10750 10755 10760 10764 10769 10771 10772 10774 10776 10778 10781 10784 10784 10784 10784 10784 10785 10785 10785 10785 10783 10781 10777 10773 10770 10769 10764 10760 10756 10753 10746 10739 10736 10732 10727 10718 10710
10693 10697 10704 10710 10715 10718 10725 10731 10734 10736 10741 10745 10750 10749 10751 10753 10757 10758 10758 10758 10760 10761 10760 10760 10759 10758 10756 10754 10750 10745 10742 10740 10735 10730 10726 10723 10717 10711 10704 10700 10694 10688 10678
10669 10673 10678 10683 10688 10694 10699 10702 10706 10713 10719 10722 10725 10728 10729 10730 10731 10730 10731 10731 10731 10731 10732 10733 10731 10729 10726 10724 10720 10715 10713 10710 10706 10699 10693 10689 10686 10679 10670 10663 10657 10651 10642
10649 10652 10654 10658 10660 10666 10669 10675 10681 10685 10691 10695 10699 10701 10702 10704 10704 10704 10704 10704 10704 10704 10703 10702 10700 10698 10696 10691 10688 10685 10681 10676 10672 10666 10660 10654 10647 10643 10638 10628 10621 10610 10601
10634 10636 10635 10637 10640 10644 10646 10649 10653 10658 10659 10663 10669 10672 10672 10674 10677 10679 10680 10677 10675 10673 10671 10669 10669 10667 10666 10663 10658 10652 10645 10641 10636 10631 10624 10616 10611 10606 10600 10590 10580 10575 10563
10622 10624 10624 10623 10623 10623 10624 10626 10630 10633 10635 10636 10639 10642 10645 10646 10647 10650 10650 10648 10649 10645 10641 10641 10642 10637 10633 10629 10622 10616 10610 10604 10600 10592 10585 10580 10574 10566 10558 10549 10541 10529 10521
10610 10609 10608 10609 10610 10610 10610 10611 10612 10613 10612 10609 10608 10609 10612 10614 10619 10619 10619 10621 10617 10614 10611 10608 10606 10603 10598 10593 10586 10579 10573 10567 10563 10557 10548 10542 10537 10528 10518 10509 10499 10489 10481